TimeMST,TemperatureF,Dew PointF,Humidity,Sea Level PressureIn,VisibilityMPH,Wind Direction,Wind SpeedMPH,Gust SpeedMPH,PrecipitationIn,Events,Conditions,WindDirDegrees,DateUTC
12:53 AM,27.0,18.0,69,29.90,10.0,SE,28.8,34.5,N/A,,Clear,140,2013-02-20 07:53:00
1:53 AM,26.1,17.1,69,29.89,10.0,SSE,25.3,33.4,N/A,,Partly Cloudy,150,2013-02-20 08:53:00
2:53 AM,25.0,17.1,72,29.88,10.0,SE,27.6,34.5,N/A,,Partly Cloudy,140,2013-02-20 09:53:00
3:53 AM,23.0,16.0,74,29.86,10.0,SE,24.2,-,N/A,,Partly Cloudy,140,2013-02-20 10:53:00
4:53 AM,24.1,17.1,75,29.87,10.0,SE,24.2,32.2,N/A,,Overcast,140,2013-02-20 11:53:00
5:42 AM,24.8,17.6,74,29.82,10.0,SE,26.5,33.4,N/A,,Overcast,140,2013-02-20 12:42:00
6:29 AM,24.8,23.0,93,29.81,4.0,SE,24.2,31.1,N/A,,Overcast,140,2013-02-20 13:29:00
6:46 AM,26.6,24.8,93,29.81,3.0,SE,20.7,28.8,N/A,,Overcast,140,2013-02-20 13:46:00
6:53 AM,27.0,25.0,92,29.87,2.5,SE,23.0,31.1,N/A,,Overcast,140,2013-02-20 13:53:00
7:14 AM,28.4,26.6,93,29.82,3.0,SSE,24.2,36.8,N/A,,Overcast,150,2013-02-20 14:14:00
7:25 AM,28.4,26.6,93,29.82,2.0,SSE,29.9,35.7,N/A,,Overcast,150,2013-02-20 14:25:00
7:36 AM,28.4,26.6,93,29.82,1.5,SE,25.3,32.2,N/A,,Overcast,140,2013-02-20 14:36:00
7:53 AM,28.0,27.0,96,29.89,0.8,SE,25.3,33.4,N/A,,Overcast,140,2013-02-20 14:53:00
8:08 AM,28.4,26.6,93,29.83,0.8,SE,27.6,33.4,0.00,Rain,Light Freezing Rain,130,2013-02-20 15:08:00
8:16 AM,28.4,26.6,93,29.84,1.0,ESE,21.9,33.4,0.00,Rain,Light Freezing Rain,120,2013-02-20 15:16:00
8:24 AM,26.6,24.8,93,29.84,0.5,ESE,20.7,27.6,0.00,Fog-Rain,Light Freezing Rain,120,2013-02-20 15:24:00
8:37 AM,24.8,24.8,100,29.84,2.0,ESE,21.9,27.6,0.00,Rain,Light Freezing Rain,120,2013-02-20 15:37:00
8:53 AM,25.0,23.0,92,29.91,3.0,SE,19.6,26.5,0.00,Rain,Light Freezing Rain,130,2013-02-20 15:53:00
8:56 AM,24.8,23.0,93,29.84,3.0,SE,20.7,27.6,N/A,,Overcast,130,2013-02-20 15:56:00
9:16 AM,24.8,23.0,93,29.82,1.5,SE,23.0,28.8,0.00,Snow,Light Snow,130,2013-02-20 16:16:00
9:36 AM,24.8,23.0,93,29.81,2.5,SE,24.2,31.1,0.00,,Overcast,130,2013-02-20 16:36:00
9:44 AM,24.8,23.0,93,29.81,5.0,SE,27.6,34.5,0.00,,Overcast,130,2013-02-20 16:44:00
9:53 AM,25.0,23.0,92,29.89,5.0,SE,24.2,34.5,0.00,,Overcast,130,2013-02-20 16:53:00
10:02 AM,26.6,23.0,86,29.80,3.0,SE,26.5,33.4,0.00,Snow,Light Snow,140,2013-02-20 17:02:00
10:12 AM,24.8,23.0,93,29.80,2.0,SE,29.9,36.8,0.00,Snow,Light Snow,130,2013-02-20 17:12:00
10:19 AM,24.8,21.2,86,29.80,1.5,SE,28.8,36.8,0.00,Snow,Light Snow,130,2013-02-20 17:19:00
10:27 AM,24.8,23.0,93,29.80,1.2,SE,28.8,35.7,0.00,Snow,Light Snow,130,2013-02-20 17:27:00
10:39 AM,24.8,21.2,86,29.80,0.8,SE,31.1,36.8,0.00,Snow,Light Snow,130,2013-02-20 17:39:00
10:53 AM,25.0,21.9,88,29.88,1.0,SE,24.2,36.8,0.00,Snow,Light Snow,130,2013-02-20 17:53:00
11:11 AM,24.8,21.2,86,29.80,0.8,SE,25.3,38.0,0.00,Snow,Light Snow,130,2013-02-20 18:11:00
11:40 AM,24.8,21.2,86,29.79,0.8,SE,23.0,33.4,0.00,Snow,Light Snow,130,2013-02-20 18:40:00
11:53 AM,24.1,21.9,91,29.86,1.0,ESE,24.2,32.2,0.00,Snow,Light Snow,120,2013-02-20 18:53:00
12:10 PM,24.8,21.2,86,29.77,0.5,ESE,21.9,28.8,0.00,Fog-Snow,Snow,120,2013-02-20 19:10:00
12:17 PM,24.8,21.2,86,29.76,0.5,ESE,23.0,29.9,0.00,Fog-Snow,Snow,120,2013-02-20 19:17:00
12:26 PM,24.8,21.2,86,29.76,1.5,ESE,23.0,32.2,0.00,Snow,Light Snow,120,2013-02-20 19:26:00
12:53 PM,24.1,21.9,91,29.82,1.2,ESE,23.0,32.2,0.00,Snow,Light Snow,120,2013-02-20 19:53:00
1:20 PM,24.8,21.2,86,29.73,0.8,ESE,24.2,29.9,0.00,Snow,Light Snow,120,2013-02-20 20:20:00
1:53 PM,25.0,23.0,92,29.78,0.8,ESE,26.5,32.2,0.00,Rain,Light Freezing Rain,120,2013-02-20 20:53:00
2:04 PM,24.8,23.0,93,29.71,1.0,ESE,24.2,32.2,0.00,Rain,Light Freezing Rain,120,2013-02-20 21:04:00
2:14 PM,24.8,23.0,93,29.71,0.8,ESE,21.9,31.1,0.00,Rain,Light Freezing Rain,120,2013-02-20 21:14:00
2:37 PM,26.6,24.8,93,29.70,1.0,SE,25.3,31.1,0.00,Rain,Light Freezing Rain,130,2013-02-20 21:37:00
2:53 PM,27.0,25.0,92,29.77,1.0,SE,25.3,32.2,0.00,Rain,Light Freezing Rain,130,2013-02-20 21:53:00
3:33 PM,26.6,24.8,93,29.69,0.8,ESE,23.0,32.2,0.00,Snow,Light Snow,120,2013-02-20 22:33:00
3:53 PM,26.1,23.0,88,29.77,0.8,ESE,23.0,-,0.00,Snow,Light Snow,120,2013-02-20 22:53:00
4:02 PM,26.6,24.8,93,29.69,1.0,ESE,18.4,28.8,0.00,Snow,Light Snow,120,2013-02-20 23:02:00
4:11 PM,26.6,24.8,93,29.69,0.8,ESE,20.7,25.3,0.00,Snow,Light Snow,120,2013-02-20 23:11:00
4:31 PM,26.6,24.8,93,29.69,0.8,SE,23.0,35.7,0.00,,Overcast,130,2013-02-20 23:31:00
4:53 PM,27.0,25.0,92,29.76,0.8,SE,24.2,33.4,0.00,,Overcast,130,2013-02-20 23:53:00
5:49 PM,26.6,24.8,93,29.71,0.5,SE,19.6,-,0.00,Fog-Snow,Snow,130,2013-02-21 00:49:00
5:53 PM,26.1,24.1,92,29.78,0.8,SE,18.4,-,0.00,Snow,Light Snow,130,2013-02-21 00:53:00
6:00 PM,26.6,24.8,93,29.71,1.5,ESE,20.7,27.6,0.00,Snow,Light Snow,120,2013-02-21 01:00:00
6:17 PM,26.6,24.8,93,29.71,2.5,ESE,19.6,26.5,0.00,,Overcast,120,2013-02-21 01:17:00
6:37 PM,24.8,23.0,93,29.71,1.5,ESE,21.9,-,0.00,Snow,Light Snow,120,2013-02-21 01:37:00
6:53 PM,25.0,23.0,92,29.79,1.0,SE,20.7,-,0.00,Snow,Light Snow,130,2013-02-21 01:53:00
6:55 PM,24.8,23.0,93,29.72,0.8,SE,23.0,-,0.00,Snow,Light Snow,130,2013-02-21 01:55:00
7:11 PM,24.8,23.0,93,29.72,0.8,SE,21.9,-,0.01,Snow,Light Snow,130,2013-02-21 02:11:00
7:25 PM,24.8,23.0,93,29.72,1.0,SE,23.0,31.1,0.01,Snow,Light Snow,130,2013-02-21 02:25:00
7:53 PM,25.0,23.0,92,29.79,1.2,ESE,21.9,29.9,0.01,Snow,Light Snow,120,2013-02-21 02:53:00
8:53 PM,25.0,23.0,92,29.79,1.5,ESE,24.2,29.9,0.00,Rain,Light Freezing Rain,120,2013-02-21 03:53:00
9:25 PM,24.8,23.0,93,29.70,0.5,SE,24.2,31.1,0.00,Fog-Snow,Snow,130,2013-02-21 04:25:00
9:31 PM,24.8,23.0,93,29.70,1.0,SE,24.2,31.1,0.00,Snow,Light Snow,130,2013-02-21 04:31:00
9:53 PM,26.1,23.0,88,29.78,1.0,SE,23.0,29.9,0.00,Snow,Light Snow,130,2013-02-21 04:53:00
10:03 PM,26.6,24.8,93,29.70,1.2,SE,23.0,29.9,0.00,Snow,Light Snow,130,2013-02-21 05:03:00
10:14 PM,26.6,24.8,93,29.69,1.2,SE,25.3,33.4,0.00,Snow,Light Snow,130,2013-02-21 05:14:00
10:38 PM,26.6,24.8,93,29.69,0.8,SE,25.3,33.4,0.00,Snow,Light Snow,130,2013-02-21 05:38:00
10:53 PM,26.1,23.0,88,29.77,0.8,SE,26.5,34.5,0.01,Snow,Light Snow,130,2013-02-21 05:53:00
11:27 PM,24.8,23.0,93,29.69,0.8,SE,26.5,33.4,0.00,Snow,Light Snow,130,2013-02-21 06:27:00
11:29 PM,24.8,23.0,93,29.69,1.0,SE,27.6,34.5,0.00,Snow,Light Snow,130,2013-02-21 06:29:00
11:43 PM,24.8,23.0,93,29.69,1.5,SE,23.0,31.1,0.00,,Overcast,130,2013-02-21 06:43:00
11:53 PM,25.0,23.0,92,29.78,1.0,SE,20.7,-,0.00,Snow,Light Snow,130,2013-02-21 06:53:00